Weather History for Alpena, MI

Change the Weather History Date:

Monday, January 27, 2014

  Actual Average Record
Temperature  
Mean Temperature 3 °F 18 °F  
Max Temperature 9 °F 27 °F 55 °F (1944)
Min Temperature -3 °F 10 °F -26 °F (1927)
Degree Days  
Heating Degree Days 62 46  
Month to date heating degree days 1416 1231  
Since 1 July heating degree days 4758 4292  
Moisture  
Dew Point -7 °F    
Average Humidity 69    
Maximum Humidity 86    
Minimum Humidity 51    
Precipitation  
Precipitation 0.01 in 0.04 in 1.11 in (1967)
Month to date precipitation 1.43 1.47  
Year to date precipitation 1.43 1.47  
Snow  
Snow 0.60 in 0.60 in 11.20 in (1967)
Month to date snowfall 14.5 18.6  
Since 1 July snowfall 41.5 45.9  
Snow Depth 13.00 in    
Sea Level Pressure  
Sea Level Pressure 29.87 in    
Wind  
Wind Speed 9 mph (WNW)    
Max Wind Speed 17 mph    
Max Gust Speed 27 mph    
Visibility 7 miles    
Events Snow    
T = Trace of Precipitation, MM = Missing Value Source: NWS Daily Summary

Daily Weather History Graph

Daily Weather History Graph

Search for Another Location

Airport:

Trip Planner

Search our weather history database for the weather conditions in past years. The results will help you decide how hot, cold, wet, or windy it might be!

Date:

Astronomy

Jan. 27, 2014 Rise Set
Actual Time 7:59 AM EST 5:34 PM EST
Civil Twilight 7:27 AM EST 6:06 PM EST
Nautical Twilight 6:52 AM EST 6:42 PM EST
Astronomical Twilight 6:17 AM EST 7:16 PM EST
Moon 4:41 AM EST (1/27) 2:17 PM EST (1/27)
Length of Visible Light 10h 38m
Length of Day
9h 35m
Waning Crescent, 15% of the Moon is Illuminated
Jan 27
Waning Crescent
Jan 30
New
Feb 6
First Quarter
Feb 14
Full
Feb 22
Last Quarter

Hourly Weather History & Observations

Time (EST) Temp. Windchill Dew Point Humidity Pressure Visibility Wind Dir Wind Speed Gust Speed Precip Events Conditions
12:54 AM 7.0 °F -9.8 °F -0.0 °F 73% 29.40 in 10.0 mi West 13.8 mph 20.7 mph N/A   Clear
1:20 AM 6.1 °F -7.8 °F -0.0 °F 76% 29.36 in 6.0 mi WNW 9.2 mph - N/A   Haze
1:37 AM 6.1 °F -7.8 °F 1.0 °F 80% 29.37 in 4.0 mi WNW 9.2 mph - 0.00 in Snow Light Snow
1:54 AM 6.1 °F -8.7 °F -0.0 °F 76% 29.43 in 3.0 mi WNW 10.4 mph 19.6 mph 0.00 in Snow Light Snow
2:54 AM 5.0 °F -10.0 °F -0.9 °F 76% 29.48 in 10.0 mi WNW 10.4 mph 21.9 mph 0.00 in   Overcast
3:52 AM 3.2 °F -13.1 °F -0.4 °F 85% 29.49 in 2.5 mi WNW 11.5 mph 23.0 mph 0.00 in Snow Light Snow
3:54 AM 3.9 °F -10.4 °F -0.9 °F 80% 29.55 in 2.5 mi WNW 9.2 mph 23.0 mph 0.00 in Snow Light Snow
4:03 AM 3.9 °F -12.2 °F -0.9 °F 80% 29.50 in 4.0 mi WNW 11.5 mph 19.6 mph 0.00 in Snow Light Snow
4:54 AM 3.9 °F -10.4 °F -2.0 °F 76% 29.61 in 10.0 mi WNW 9.2 mph 21.9 mph 0.00 in   Overcast
5:54 AM 1.9 °F -14.7 °F -4.0 °F 76% 29.69 in 10.0 mi NW 11.5 mph - N/A   Clear
6:54 AM -0.0 °F -14.2 °F -6.0 °F 76% 29.76 in 10.0 mi WNW 8.1 mph - N/A   Clear
7:54 AM -0.9 °F -12.7 °F -8.0 °F 72% 29.82 in 10.0 mi WNW 5.8 mph - N/A   Clear
8:54 AM -0.9 °F -12.7 °F -9.9 °F 66% 29.87 in 8.0 mi WNW 5.8 mph - N/A   Clear
9:54 AM -0.0 °F -14.2 °F -9.0 °F 66% 29.91 in 10.0 mi NW 8.1 mph - N/A   Partly Cloudy
10:32 AM -0.0 °F -16.3 °F -9.9 °F 63% 29.89 in 5.0 mi NNW 10.4 mph - N/A   Haze
10:42 AM -0.0 °F -17.1 °F -9.0 °F 66% 29.89 in 8.0 mi NW 11.5 mph - N/A   Scattered Clouds
10:54 AM -0.0 °F -15.3 °F -9.9 °F 63% 29.95 in 10.0 mi WNW 9.2 mph - N/A   Scattered Clouds
11:12 AM 1.9 °F -14.7 °F -9.0 °F 60% 29.91 in 10.0 mi NW 11.5 mph 16.1 mph N/A   Mostly Cloudy
11:43 AM 3.0 °F -9.3 °F -9.0 °F 57% 29.92 in 10.0 mi Variable 6.9 mph - N/A   Overcast
11:54 AM 1.9 °F -15.5 °F -9.9 °F 58% 29.97 in 10.0 mi NW 12.7 mph - N/A   Overcast
12:54 PM 3.0 °F -14.1 °F -11.0 °F 52% 29.98 in 10.0 mi WNW 12.7 mph 21.9 mph N/A   Mostly Cloudy
1:54 PM 3.0 °F -14.1 °F -9.0 °F 57% 29.99 in 9.0 mi West 12.7 mph 18.4 mph 0.00 in   Overcast
2:26 PM 1.9 °F -13.8 °F -9.0 °F 60% 29.94 in 2.0 mi WNW 10.4 mph 21.9 mph 0.00 in Snow Light Snow
2:30 PM 1.9 °F -12.9 °F -9.0 °F 60% 29.94 in 1.5 mi WNW 9.2 mph 21.9 mph 0.00 in Snow Light Snow
2:40 PM 1.9 °F -13.8 °F -8.0 °F 63% 29.94 in 2.5 mi West 10.4 mph 18.4 mph 0.00 in Snow Light Snow
2:47 PM 1.9 °F -15.5 °F -9.0 °F 60% 29.95 in 4.0 mi WNW 12.7 mph 20.7 mph 0.00 in Snow Light Snow
2:54 PM 1.0 °F -16.6 °F -9.0 °F 63% 30.01 in 1.5 mi WNW 12.7 mph 20.7 mph 0.00 in Snow Light Snow
3:03 PM 1.9 °F -12.9 °F -9.0 °F 60% 29.95 in 3.0 mi WNW 9.2 mph - 0.00 in Snow Light Snow
3:12 PM 1.9 °F -14.7 °F -11.0 °F 55% 29.95 in 8.0 mi WNW 11.5 mph 23.0 mph 0.00 in   Overcast
3:20 PM 1.0 °F -14.9 °F -8.0 °F 66% 29.96 in 2.0 mi WNW 10.4 mph 19.6 mph 0.00 in Snow Light Snow
3:27 PM 1.0 °F -16.6 °F -7.1 °F 69% 29.96 in 1.2 mi WNW 12.7 mph 20.7 mph 0.00 in Snow Light Snow
3:32 PM 1.0 °F -14.9 °F -9.0 °F 63% 29.96 in 2.0 mi WNW 10.4 mph 20.7 mph 0.00 in Snow Light Snow
3:41 PM 1.9 °F -13.8 °F -9.0 °F 60% 29.97 in 9.0 mi WNW 10.4 mph 17.3 mph 0.00 in   Overcast
3:49 PM 1.4 °F -14.5 °F -7.6 °F 66% 29.97 in 2.5 mi NW 10.4 mph 18.4 mph 0.00 in Snow Light Snow
3:54 PM 1.0 °F -14.9 °F -7.1 °F 69% 30.03 in 1.5 mi WNW 10.4 mph 17.3 mph 0.00 in Snow Light Snow
3:58 PM 1.0 °F -12.9 °F -7.1 °F 69% 29.97 in 2.0 mi WNW 8.1 mph 17.3 mph 0.00 in Snow Light Snow
4:06 PM 1.0 °F -14.9 °F -9.9 °F 60% 29.97 in 9.0 mi WNW 10.4 mph 20.7 mph 0.00 in   Overcast
4:54 PM -0.0 °F -17.1 °F -8.0 °F 69% 30.05 in 3.0 mi NW 11.5 mph 17.3 mph 0.00 in Snow Light Snow
5:17 PM -0.0 °F -15.3 °F -9.9 °F 63% 30.01 in 8.0 mi WNW 9.2 mph 18.4 mph 0.00 in   Overcast
5:54 PM -2.0 °F -15.4 °F -13.0 °F 60% 30.09 in 10.0 mi Variable 6.9 mph - 0.00 in   Overcast
6:54 PM -2.0 °F -16.6 °F -13.0 °F 60% 30.11 in 10.0 mi West 8.1 mph - N/A   Overcast
7:54 PM -2.0 °F -15.4 °F -11.9 °F 63% 30.12 in 10.0 mi WSW 6.9 mph - N/A   Overcast
8:54 PM -2.0 °F -15.4 °F -9.9 °F 69% 30.12 in 10.0 mi WSW 6.9 mph - N/A   Overcast
9:54 PM -2.0 °F -13.9 °F -9.0 °F 72% 30.13 in 10.0 mi WSW 5.8 mph - N/A   Overcast
10:54 PM -2.0 °F -17.7 °F -8.0 °F 76% 30.13 in 10.0 mi SW 9.2 mph - N/A   Clear
11:54 PM -2.9 °F -18.8 °F -9.0 °F 75% 30.14 in 10.0 mi WSW 9.2 mph - N/A   Clear